YAOGAN-40 01C

Satellite information

Favourite Embed

Satellite Type and Status

PAYLOADIN ORBIT

Key statistics

Satellite YAOGAN-40 01C at a glance.

Uptime

604

Days in orbit

Revolutions

≈ 14.1

Per day

Orbit

LEO

Low Earth Orbit

Inclination

86.0

Latest

Satellite identification and parameters

Extended collection of information and parameters for YAOGAN-40 01C.

Object identification

Identified? True

Debris? False

Object name: YAOGAN-40 01C

International designator: 2023-139D

Object number (NORAD): 57833

Object ID (CCSDS): 57833

Country: PEOPLES REPUBLIC OF CHINA (PRC)

Current information (Y/N): Y

RCS size: LARGE

Orbital parameters

Period: 101.959 minutes

Inclination: 85.9892 deg

SMA: 7229.538 km

Apoapsis: 852.534 km

Periapsis: 850.271 km

RAAN: 82.3877 deg

Eccentricy: 0.0001565

Argument of periapsis: 78.3742 deg

Mean anomaly: 281.7617 deg

Mean motion: 14.12332513 rev/day

Mean motion (dot): 0.00000318 rev/day2

B* drag term: 0.00016242 1/REarth

Two-line elements (TLE)

Creation date: May 5, 2025, 2:11 a.m.

Reference frame: TEME

Reference center: EARTH

Epoch: May 4, 2025, 10:35 p.m. UTC

TLE line 0: 0 YAOGAN-40 01C

TLE line 1: 1 57833U 23139D 25124.94098223 .00000318 00000-0 16242-3 0 9995

TLE line 2: 2 57833 85.9892 82.3877 0001565 78.3742 281.7617 14.12332513 85181

Live tracking on map

Real-time ground track for satellite YAOGAN-40 01C.

In-orbit conjunctions

There are no conjunctions computed for YAOGAN-40 01C, at the moment. Check back to stay up to date, as we update our databases every day.

Go to all conjunctions

Associated space launch

3 Chinese reconnaissance satellites of unknown purposes, officially reported as for "Electromagnetic environment probing" purposes.

YAOGAN-40 01C was lifted into orbit during the mission ‘Long March 6A | Yaogan 40’, on board a Long March 6A space rocket.

The launch took place on Sept. 10, 2023, 4:30 a.m. from Launch Complex 9A.

For more information about the launch, click the button.

Launch to space Long March 6A | Yaogan 40
Long March 6A | Yaogan 40

Agency: N/A

Status: Launch Successful

Launch date: Sept. 10, 2023, 4:30 a.m. UTC

Rocket: Long March 6A

Launch pad: Launch Complex 9A

Location: Taiyuan Satellite Launch Center, People's Republic of China

...

Latest news about this satellite

There are no fresh news available about this satellite. Check back as we update our databases every day.


Newsletter sign-up

Weekly statistics, charts and insights to help you stay on top of the space industry.